Weather History for KERI - February, 2014

Change the Weather History Date:

Wednesday, February 5, 2014

  Actual Average Record
Temperature  
Mean Temperature 20 °F 27 °F  
Max Temperature 24 °F 34 °F 59 °F (1938)
Min Temperature 16 °F 20 °F -13 °F (1918)
Degree Days  
Heating Degree Days 45 38  
Month to date heating degree days 200 190  
Since 1 July heating degree days 3781 3528  
Cooling Degree Days 0 0  
Month to date cooling degree days 0 0  
Year to date cooling degree days 0 0  
Moisture  
Dew Point 18 °F    
Average Humidity 83    
Maximum Humidity 92    
Minimum Humidity 73    
Precipitation  
Precipitation 0.54 in 0.08 in 0.96 in (2006)
Month to date precipitation 1.64 0.41  
Year to date precipitation 4.20 3.36  
Snow  
Snow 8.10 in 0.70 in - ()
Month to date snowfall 12.2 3.8  
Since 1 July snowfall 103.9 69.6  
Snow Depth 4.00 in    
Sea Level Pressure  
Sea Level Pressure 29.95 in    
Wind  
Wind Speed 14 mph (NNE)    
Max Wind Speed 29 mph    
Max Gust Speed 41 mph    
Visibility 2 miles    
Events Snow    
T = Trace of Precipitation, MM = Missing Value Source: NWS Daily Summary

Daily Weather History Graph

Daily Weather History Graph

Search for Another Location

Airport or City:

Trip Planner

Search our weather history database for the weather conditions in past years. The results will help you decide how hot, cold, wet, or windy it might be!

Date:

Astronomy

Feb. 05, 2014 Rise Set
Actual Time 7:29 AM EST 5:40 PM EST
Civil Twilight 7:00 AM EST 6:10 PM EST
Nautical Twilight 6:26 AM EST 6:43 PM EST
Astronomical Twilight 5:54 AM EST 7:15 PM EST
Moon 10:35 AM EST (2/5) No Moon Set
Length of Visible Light 11h 10m
Length of Day
10h 11m
Waxing Crescent, 39% of the Moon is Illuminated
Feb 5
Waxing Crescent
Feb 6
First Quarter
Feb 14
Full
Feb 22
Last Quarter
Mar 1
New

Hourly Weather History & Observations

Time (EST) Temp. Windchill Dew Point Humidity Pressure Visibility Wind Dir Wind Speed Gust Speed Precip Events Conditions
12:07 AM 21.2 °F 10.1 °F 19.4 °F 93% 30.11 in 1.5 mi NE 10.4 mph - 0.01 in Snow Light Snow
12:51 AM 23.0 °F 10.6 °F 19.0 °F 85% 30.12 in 1.2 mi NE 13.8 mph - 0.03 in Snow Light Snow
1:05 AM 23.0 °F 10.1 °F 19.4 °F 86% 30.08 in 1.5 mi NE 15.0 mph - 0.00 in Snow Light Snow
1:51 AM 23.0 °F 10.6 °F 19.9 °F 88% 30.06 in 1.5 mi ENE 13.8 mph - 0.02 in Snow Light Snow
2:51 AM 23.0 °F 11.7 °F 19.9 °F 88% 30.05 in 1.5 mi NE 11.5 mph - 0.02 in Snow Light Snow
3:27 AM 23.0 °F 8.7 °F 19.4 °F 86% 29.96 in 0.8 mi ENE 18.4 mph - 0.01 in Snow Light Snow
3:51 AM 23.0 °F 11.7 °F 19.9 °F 88% 29.99 in 0.8 mi ENE 11.5 mph - 0.02 in Snow Light Snow
4:00 AM 23.0 °F 11.1 °F 19.4 °F 86% 29.96 in 1.0 mi NE 12.7 mph - 0.00 in Snow Light Snow
4:51 AM 23.0 °F 10.6 °F 19.9 °F 88% 29.96 in 0.8 mi NE 13.8 mph - 0.03 in Snow Light Snow
4:59 AM 23.0 °F 8.3 °F 19.4 °F 86% 29.91 in 1.0 mi ENE 19.6 mph - 0.00 in Snow Light Snow
5:19 AM 23.0 °F 9.6 °F 19.4 °F 86% 29.89 in 1.0 mi NE 16.1 mph - 0.01 in Snow Light Snow
5:42 AM 23.0 °F 8.7 °F 19.4 °F 86% 29.85 in 2.0 mi NE 18.4 mph - 0.01 in Snow Light Snow
5:51 AM 23.0 °F 9.6 °F 19.9 °F 88% 29.88 in 3.0 mi NE 16.1 mph 24.2 mph 0.01 in Snow Light Snow
6:20 AM 23.0 °F 8.7 °F 19.4 °F 86% 29.84 in 4.0 mi NE 18.4 mph - 0.01 in   Overcast
6:41 AM 23.0 °F 6.9 °F 19.4 °F 86% 29.79 in 2.5 mi ENE 24.2 mph 29.9 mph 0.01 in   Overcast
6:51 AM 23.0 °F 8.0 °F 19.9 °F 88% 29.81 in 2.5 mi ENE 20.7 mph 31.1 mph 0.01 in   Overcast
7:36 AM 23.0 °F 6.6 °F 19.4 °F 86% 29.75 in 1.8 mi NE 25.3 mph 33.4 mph 0.00 in Snow Light Snow
7:51 AM 23.0 °F 6.9 °F 19.0 °F 85% 29.78 in 0.8 mi NE 24.2 mph 31.1 mph 0.00 in Snow Light Snow
8:00 AM 21.2 °F 5.2 °F 19.4 °F 93% 29.73 in 0.5 mi NE 21.9 mph 31.1 mph 0.00 in Snow Light Snow
8:09 AM 21.2 °F 5.6 °F 19.4 °F 93% 29.73 in 0.5 mi NE 20.7 mph 31.1 mph 0.01 in Snow Light Snow
8:30 AM 21.2 °F 4.9 °F 19.4 °F 93% 29.71 in 0.2 mi NE 23.0 mph 33.4 mph 0.02 in Snow Light Snow
8:51 AM 21.9 °F 5.1 °F 19.0 °F 89% 29.73 in 0.2 mi NE 25.3 mph 33.4 mph 0.03 in Snow Light Snow
9:31 AM 21.2 °F 5.2 °F 19.4 °F 93% 29.72 in 0.2 mi NE 21.9 mph 31.1 mph 0.06 in Snow Light Snow
9:46 AM 21.2 °F 5.2 °F 19.4 °F 93% 29.72 in 0.2 mi NE 21.9 mph 29.9 mph 0.09 in Snow Light Snow
9:51 AM 21.9 °F 6.9 °F 19.0 °F 89% 29.76 in 0.2 mi NE 19.6 mph 29.9 mph 0.09 in Snow Light Snow
10:44 AM 23.0 °F 6.9 °F 19.4 °F 86% 29.72 in 0.2 mi NE 24.2 mph 36.8 mph 0.08 in Snow Light Snow
10:51 AM 23.0 °F 6.6 °F 19.9 °F 88% 29.75 in 0.5 mi NE 25.3 mph 35.7 mph 0.08 in Snow Light Snow
11:51 AM 23.0 °F 6.6 °F 19.9 °F 88% 29.75 in 0.5 mi NE 25.3 mph 35.7 mph 0.02 in Snow Light Snow
11:58 AM 23.0 °F 7.2 °F 19.4 °F 86% 29.72 in 0.8 mi NE 23.0 mph 35.7 mph 0.00 in Snow Light Snow
12:06 PM 23.0 °F 9.2 °F 19.4 °F 86% 29.72 in 1.2 mi NE 17.3 mph 27.6 mph 0.00 in Snow Light Snow
12:24 PM 24.8 °F 10.3 °F 19.4 °F 80% 29.73 in 2.0 mi NE 20.7 mph 27.6 mph 0.00 in Snow Light Snow
12:51 PM 24.1 °F 10.6 °F 19.9 °F 84% 29.78 in 1.8 mi NE 17.3 mph 25.3 mph 0.00 in Snow Light Snow
1:51 PM 24.1 °F 12.0 °F 21.0 °F 88% 29.81 in 1.0 mi NNE 13.8 mph 25.3 mph 0.00 in Snow Light Snow
2:12 PM 24.8 °F 12.4 °F 21.2 °F 86% 29.80 in 0.2 mi NNE 15.0 mph 24.2 mph 0.04 in Snow Light Snow
2:51 PM 21.9 °F 8.7 °F 19.0 °F 89% 29.89 in 0.5 mi North 15.0 mph 26.5 mph 0.06 in Snow Light Snow
3:21 PM 21.2 °F 7.3 °F 17.6 °F 86% 29.89 in 1.2 mi North 16.1 mph 25.3 mph 0.00 in Snow Light Snow
3:38 PM 21.2 °F 7.3 °F 17.6 °F 86% 29.92 in 1.2 mi North 16.1 mph 23.0 mph 0.03 in Snow Light Snow
3:51 PM 21.0 °F 8.6 °F 17.1 °F 85% 29.96 in 1.2 mi North 12.7 mph 20.7 mph 0.04 in Snow Light Snow
3:58 PM 21.2 °F 8.3 °F 17.6 °F 86% 29.94 in 2.5 mi North 13.8 mph 26.5 mph 0.00 in Snow Light Snow
4:05 PM 21.2 °F 7.8 °F 17.6 °F 86% 29.94 in 2.5 mi North 15.0 mph 23.0 mph 0.00 in Snow Light Snow
4:08 PM 21.2 °F 8.9 °F 17.6 °F 86% 29.95 in 4.0 mi North 12.7 mph 23.0 mph 0.00 in Snow Light Snow
4:47 PM 21.2 °F 10.9 °F 17.6 °F 86% 30.00 in 2.0 mi North 9.2 mph - 0.01 in Snow Light Snow
4:51 PM 21.0 °F 10.6 °F 17.1 °F 85% 30.04 in 1.8 mi North 9.2 mph - 0.01 in Snow Light Snow
5:06 PM 21.2 °F 11.7 °F 17.6 °F 86% 30.02 in 2.0 mi North 8.1 mph - 0.00 in Snow Light Snow
5:12 PM 21.2 °F 12.6 °F 17.6 °F 86% 30.02 in 1.8 mi North 6.9 mph - 0.00 in Snow Light Snow
5:21 PM 21.2 °F 10.9 °F 17.6 °F 86% 30.03 in 1.5 mi North 9.2 mph - 0.00 in Snow Light Snow
5:26 PM 21.2 °F 11.7 °F 17.6 °F 86% 30.04 in 2.0 mi North 8.1 mph - 0.00 in Snow Light Snow
5:33 PM 21.2 °F 11.7 °F 17.6 °F 86% 30.04 in 3.0 mi North 8.1 mph - 0.00 in Snow Light Snow
5:43 PM 21.2 °F 12.6 °F 17.6 °F 86% 30.06 in 5.0 mi North 6.9 mph - 0.00 in Snow Light Snow
5:51 PM 21.0 °F 12.4 °F 17.1 °F 85% 30.10 in 4.0 mi North 6.9 mph - 0.00 in Snow Light Snow
6:01 PM 21.2 °F 13.6 °F 17.6 °F 86% 30.07 in 2.5 mi North 5.8 mph - 0.00 in Snow Light Snow
6:09 PM 21.2 °F 13.6 °F 17.6 °F 86% 30.07 in 3.0 mi North 5.8 mph - 0.00 in Snow Light Snow
6:41 PM 21.2 °F 14.9 °F 17.6 °F 86% 30.10 in 3.0 mi North 4.6 mph - 0.00 in Snow Light Snow
6:51 PM 21.0 °F 13.4 °F 17.1 °F 85% 30.15 in 3.0 mi NNW 5.8 mph - 0.00 in Snow Light Snow
7:23 PM 19.4 °F 11.5 °F 15.8 °F 86% 30.14 in 4.0 mi NNW 5.8 mph - 0.00 in Snow Light Snow
7:36 PM 19.4 °F 11.5 °F 15.8 °F 86% 30.14 in 3.0 mi NNW 5.8 mph - 0.00 in Snow Light Snow
7:51 PM 19.9 °F 11.1 °F 16.0 °F 85% 30.19 in 2.0 mi NNW 6.9 mph - 0.00 in Snow Light Snow
7:58 PM 19.4 °F 12.8 °F 15.8 °F 86% 30.15 in 1.8 mi NNW 4.6 mph - 0.01 in Snow Light Snow
8:02 PM 19.4 °F 11.5 °F 15.8 °F 86% 30.15 in 3.0 mi NNW 5.8 mph - 0.01 in Snow Light Snow
8:51 PM 19.0 °F 9.0 °F 15.1 °F 85% 30.22 in 5.0 mi NNW 8.1 mph - 0.03 in Snow Light Snow
9:37 PM 19.4 °F 10.4 °F 14.0 °F 80% 30.21 in 2.5 mi NNW 6.9 mph - 0.00 in   Overcast
9:51 PM 18.0 °F 7.7 °F 10.9 °F 74% 30.27 in 9.0 mi NNW 8.1 mph - 0.00 in Snow Light Snow
10:51 PM 16.0 °F 5.3 °F 9.0 °F 74% 30.31 in 9.0 mi North 8.1 mph - 0.00 in Snow Light Snow
11:51 PM 16.0 °F 6.3 °F 7.0 °F 68% 30.31 in 9.0 mi North 6.9 mph - 0.00 in Snow Light Snow